#timestamp,LO_Frequency,Hit 
1501167615.1,286047008.2,N
1501167635.8,286047006.2,N
1501167655.7,286047007.5,N
1501167675.5,286047009.0,N
1501167695.3,286047009.1,N
1501167715.2,286047004.5,N
1501167735.9,286047007.1,N
1501167755.7,286047007.3,N
1501167775.5,286047006.8,N
1501167795.4,286047004.9,N
1501167815.2,286047004.9,N
1501167835.0,286047004.8,N
1501167835.9,286047004.8,N
1501167855.8,286047005.3,N
1501167875.6,286047003.6,N
1501167895.4,286047007.5,N
1501167915.3,286047004.1,N
1501167935.1,286047004.4,N
1501167936.0,286047004.4,N
1501167955.8,286047005.9,N
1501167975.7,286047004.5,N
1501167995.5,286047007.6,N
1501168015.3,286047003.1,N
1501168035.1,286047003.4,N
1501168055.9,286047006.9,N
1501168075.7,286047006.3,N
1501168095.5,286047010.6,N
1501168115.4,286047010.1,N
1501168135.2,286047011.5,N
1501168155.0,286047013.4,N
1501168155.9,286047013.4,N
1501168175.8,286047013.0,N
1501168195.6,286047012.8,N
1501168215.4,286047013.4,N
1501168235.3,286047013.8,N
1501168255.1,286047011.2,N
1501168256.0,286047011.2,N
1501168275.8,286047013.5,N
1501168295.6,286047012.6,N
1501168315.5,286047012.9,N
1501168335.3,286047012.5,N
1501168355.1,286047012.9,N
1501168375.9,286047013.5,N
1501168395.7,286047011.1,N
1501168415.5,286047011.5,N
1501168435.4,286047009.7,N
1501168455.2,286047006.8,N
1501168475.0,286047008.2,N
1501168475.9,286047008.2,N
1501168495.8,286047006.7,N
1501168515.6,286047007.2,N
1501168535.4,286047004.5,N
1501168555.3,286047005.2,N
1501168575.1,286047006.6,N
1501168576.0,286047006.6,N
1501168595.8,286047008.6,N
1501168615.6,286047010.4,N
1501168635.5,286047012.3,N
1501168655.3,286047008.1,N
1501168675.1,286047010.4,N
1501168695.9,286047007.7,N
1501168715.7,286047010.0,N
1501168735.5,286047010.1,N
1501168755.4,286047008.3,N
1501168775.2,286047007.9,N
1501168795.0,286047011.3,N
1501168795.9,286047011.3,N
1501168815.8,286047010.0,N
1501168835.6,286047008.0,N
1501168855.4,286047006.3,N
1501168875.2,286047005.4,N
1501168895.1,286047005.9,N
1501168896.0,286047005.9,N
1501168915.8,286047004.3,N
1501168935.6,286047004.4,N
1501168955.5,286047002.2,N
1501168975.3,286047000.7,N
1501168995.1,286047002.3,N
1501169015.9,286047003.9,N
1501169035.7,286047005.4,N
1501169055.5,286047004.2,N
1501169075.4,286047003.3,N
1501169095.2,286047005.4,N
1501169115.0,286047007.5,N
1501169115.9,286047007.5,N
1501169135.7,286047007.9,N
1501169155.6,286047010.3,N
1501169175.4,286047009.5,N
1501169195.2,286047011.9,N
1501169215.1,286047013.6,N
1501169216.0,286047013.6,N
1501169235.8,286047011.5,N
1501169255.6,286047011.9,N
1501169275.5,286047011.9,N
1501169295.3,286047010.0,N
1501169315.1,286047008.2,N
1501169335.9,286047008.4,N
1501169355.7,286047009.8,N
1501169375.5,286047011.4,N
1501169395.3,286047013.0,N
1501169415.2,286047012.6,N
1501169435.0,286047015.4,N
1501169435.9,286047015.4,N
1501169455.8,286047016.6,Y
1501169475.6,286047010.4,N
1501169495.4,286047009.6,N
1501169515.2,286047009.9,N
1501169535.1,286047009.4,N
1501169536.0,286047009.4,N
1501169555.8,286047011.8,N
1501169575.6,286047011.0,N
1501169595.5,286047009.9,N
1501169615.3,286047008.6,N
1501169635.1,286047010.7,N
1501169655.9,286047010.2,N
1501169675.7,286047010.5,N
1501169695.5,286047010.5,N
1501169715.4,286047009.9,N
1501169735.2,286047009.3,N
1501169755.0,286047011.2,N
1501169755.9,286047011.2,N
1501169775.7,286047011.0,N
1501169795.6,286047010.2,N
1501169815.4,286047006.4,N
1501169835.2,286047006.1,N
1501169855.1,286047009.0,N
1501169856.0,286047009.0,N
1501169875.8,286047010.4,N
1501169895.6,286047010.5,N
1501169915.5,286047011.2,N
1501169935.3,286047011.0,N
1501169955.1,286047012.6,N
1501169975.9,286047012.6,N
1501169995.7,286047013.4,N
1501170015.5,286047011.0,N
1501170035.4,286047010.8,N
1501170055.2,286047008.7,N
1501170075.0,286047008.8,N
1501170075.9,286047008.8,N
1501170095.7,286047006.9,N
1501170115.6,286047007.4,N
1501170135.4,286047006.4,N
1501170155.2,286047006.7,N
1501170175.1,286047007.9,N
1501170176.0,286047007.9,N
1501170195.8,286047009.5,N
1501170215.6,286047011.5,N
1501170235.5,286047011.3,N
1501170255.3,286047013.6,Y
1501170275.1,286047008.6,N
1501170295.9,286047007.2,N
1501170315.7,286047004.6,N
1501170335.5,286047006.7,N
1501170355.4,286047005.1,N
1501170375.2,286047005.0,N
1501170395.0,286047006.4,N
1501170395.9,286047006.4,N
1501170415.8,286047006.7,N
1501170435.6,286047005.2,N
1501170455.4,286047005.5,N
1501170475.2,286047007.3,N
1501170495.1,286047008.9,N
1501170496.0,286047008.9,N
1501170515.8,286047010.2,N
1501170535.6,286047011.6,N
1501170555.5,286047010.9,N
1501170575.3,286047012.0,Y
1501170595.1,286047001.8,N
1501170615.9,286047002.5,N
1501170635.7,286047000.2,N
1501170655.5,286047004.3,N
1501170675.4,286047003.8,N
1501170695.2,286047003.1,N
1501170715.0,286047004.9,N
1501170715.9,286047004.9,N
1501170735.8,286047007.1,N
1501170755.6,286047007.2,N
1501170775.4,286047004.4,N
1501170795.2,286047002.5,N
1501170815.1,286047000.1,N
1501170816.0,286047000.1,N
1501170835.8,286047000.0,N
1501170855.6,286047001.4,N
1501170875.5,286047002.1,N
1501170895.3,286047002.4,N
1501170915.1,286046999.8,N
1501170935.9,286047001.6,N
1501170955.7,286047002.5,N
1501170975.5,286047001.9,N
1501170995.4,286047004.2,N
1501171015.2,286047004.7,N
1501171035.0,286047004.7,N
1501171035.9,286047004.7,N
1501171055.7,286047003.9,N
1501171075.6,286047001.8,N
1501171095.4,286047001.5,N
1501171115.2,286047000.5,N
1501171135.1,286047002.6,N
1501171136.0,286047002.6,N
1501171155.8,286047002.0,N
1501171175.6,286047000.2,N
1501171195.5,286047000.1,N
